Regional Weather Roundup
Issued by NWS

Home | Current Version | Previous Version | Text Only | Print | Product List | Glossary On
Versions: 1 2 3 4 5 6 7 8 9 10 11 12 13 14 15 16 17 18 19 20 21 22 23 24 25 26 27 28 29 30 31 32 33 34 35 36 37 38 39 40 41 42 43 44 45 46 47 48 49 50
000
ASUS45 KCYS 210210
RWRWY

WYOMING REGIONAL WEATHER ROUNDUP
NATIONAL WEATHER SERVICE CHEYENNE WY
700 PM MST THU NOV 20 2014

NOTE:  "FAIR" INDICATES FEW OR NO CLOUDS BELOW 12,000 FEET
WITH NO SIGNIFICANT WEATHER AND/OR OBSTRUCTIONS TO VISIBILITY.

WYZ001-210300-
YELLOWSTONE NATIONAL PARK

CITY           SKY/WX    TMP DP  RH WIND       PRES   REMARKS
LK YELLOWSTONE   N/A     29  19  66 VRB3      30.03S
W YELLOWSTONE  NOT AVBL

$$
WYZ002>013-054>058-071-098>099-210300-
NORTHERN WYOMING

CITY           SKY/WX    TMP DP  RH WIND       PRES   REMARKS
JACKSON        CLOUDY    21  19  93 CALM      30.05S
CODY           MOCLDY    46  18  31 W12G25    29.89R
GREYBULL       PTCLDY    11   8  88 W6        29.93S WCI   1
WORLAND        MOCLDY    20  15  81 CALM      29.92R
SHERIDAN       PTCLDY    27  21  78 CALM      29.86R
BUFFALO        PTCLDY    37  19  48 SW6       29.87F WCI  32
GILLETTE       PTCLDY    30  21  69 CALM      29.87S
HULETT           N/A    N/A N/A N/A MISG        N/A
NEWCASTLE      FAIR      25  19  80 CALM      29.93S

$$
WYZ014>020-022>026-101>103-210300-
CENTRAL WYOMING

CITY           SKY/WX    TMP DP  RH WIND       PRES   REMARKS
BIG PINEY      CLOUDY    26  17  68 E6        30.04R WCI  19
PINEDALE       MOCLDY    25  19  80 NW8       30.05R WCI  16
DUBOIS         FAIR      32  18  55 NW12      29.97S WCI  23
LANDER         MOCLDY    23  17  78 CALM      29.93S
RIVERTON       MOCLDY    24  14  65 CALM      29.94S
CASPER         CLOUDY    37  21  52 SW8       29.92F WCI  31
DOUGLAS        PTCLDY    32  22  66 CALM      29.93S

$$
WYZ021-027>030-104>119-210300-
SOUTHERN WYOMING

CITY           SKY/WX    TMP DP  RH WIND       PRES   REMARKS
EVANSTON       CLOUDY    33  15  47 SW6       30.05F WCI  28
KEMMERER       CLOUDY    32  16  51 CALM      30.05S
FORT BRIDGER   FAIR      33  17  51 SW7       30.08S WCI  27
ROCK SPRINGS   CLOUDY    37  22  54 SW14      30.04S WCI  28
DIXON          CLOUDY    33  22  64 CALM      30.09S
RAWLINS        CLOUDY    36  18  48 W10       30.02R WCI  28
SARATOGA       CLOUDY    34  19  55 W3        30.05S
LARAMIE        CLOUDY    36  17  46 SW15      30.00R WCI  27
CHEYENNE       PTCLDY    31  14  49 W9        29.99R WCI  23
TORRINGTON     PTCLDY    38  16  40 S5        29.93R WCI  34
PINE BLUFFS    FAIR      30  12  47 SW3       29.99R

$$


USA.gov is the U.S. government's official web portal to all federal, state and local government web resources and services.